Powrót do katalogu

ONEWEB-0670

AktywnyŁącznośćPO
NORAD 55829·PAYLOAD·🇬🇧 United Kingdom

Wystrzelony Mar 9, 2023 z Cape Canaveral Space Force Station

Loading…

Następne Przeloty (najbliższe 24 godziny)

TLE

ŚwieżeSource: CelesTrak SupGP

Epoka: Sep 14, 2026, 16:09 UTC

1 55829C 23029AK  26257.67344167 -.00001187  00000+0 -32050-2 0  2572
2 55829  87.8886 271.8865 0002326  92.2389  10.1987 13.14504654    19

Śledź ONEWEB-0670 w czasie rzeczywistym z AllMySat

Download on the App Store